Vertical_Velocity
-3 -1 -1 -1 -1 -1 -1 -4 -1 -4 -4 -2 -0 1 -3 -5 -2 -3 -1 -1 3 2 19 7 1 4 -5 -2 -2 -1 1 -2 4 1 -3 2 -2 1 -2 -5 1 -3 3 1 -1 -4 -5
-4 -1 -4 -3 -1 2 4 3 2 3 -1 1 1 5 3 -4 -4 -4 -2 1 -2 -0 2 10 10 0 -5 -1 2 -1 3 0 2 -1 -3 -2 -2 -1 -1 -1 -3 -3 -3 -2 0 -2 -5
-2 -4 3 3 -1 -3 -2 -4 2 -4 0 -2 -0 2 8 2 1 -4 -4 0 -1 -1 1 2 20 3 1 -2 -1 -1 5 -3 2 -3 -3 -4 -1 2 -1 -2 -1 -0 -6 -1 5 3 -14
7 1 -2 2 -2 2 -12 0 -0 -2 0 7 4 6 8 4 1 -2 -7 3 0 -4 0 9 15 9 -7 1 -7 3 3 2 3 -3 -2 0 -1 -1 -2 -2 -0 -2 1 -6 7 1 -3
-1 1 -0 7 7 4 3 11 3 -6 0 6 0 14 23 -1 4 -1 -3 32 0 4 7 14 12 1 -3 1 -4 4 6 2 2 -3 -1 1 2 -1 -2 -1 -1 1 -1 -4 -18 0 -9
-3 14 -3 4 2 -6 3 -3 -3 -4 -2 -4 -1 21 15 -1 7 -2 -2 -1 0 9 20 6 -2 -2 2 3 -0 5 1 3 -1 -3 1 2 2 -0 -0 -1 -2 -1 -2 -5 -6 -14 1
-0 -0 0 -3 -6 1 2 -2 -4 -5 2 -8 16 11 8 1 -10 -4 1 -1 18 15 2 2 1 -1 -12 1 8 -4 2 3 -1 -1 -2 0 -2 -3 -1 -1 -1 -0 -1 -4 -1 -2 -3
-7 6 -1 4 -3 -1 1 -4 -1 -3 1 4 -2 -0 -5 3 -0 -2 -1 -1 -2 12 19 1 10 -5 -1 -2 -1 0 3 -1 -2 -2 0 -1 -12 3 -2 1 1 -0 -2 -9 -14 1 4
2 -1 2 2 -5 -5 3 4 -4 -2 2 1 -0 2 1 2 -1 1 -2 -7 7 -5 -3 11 8 7 0 3 -0 2 -1 -0 -1 2 -0 -3 3 0 -1 2 1 -2 -3 -3 -7 -4 4
0 -1 -1 1 -8 -4 9 6 -2 -3 -2 -2 3 4 -2 2 1 2 -4 -3 -4 3 3 2 4 1 3 3 -1 1 -1 -1 2 -1 0 1 -2 1 3 -2 1 3 8 1 7 7 -3
-1 -2 -3 1 -5 -4 2 3 -3 -3 -2 -1 -3 -0 2 6 -6 -18 -2 -0 -9 1 -4 0 -0 1 3 -3 1 -1 1 2 -3 -0 5 -2 2 0 -2 -3 4 -11 2 4 4 4 6
0 -1 1 5 -4 -3 -4 9 -2 -7 -1 2 -5 -2 -6 -0 -3 -3 -1 -2 3 -2 2 5 3 14 -2 1 1 1 -1 -1 1 2 -1 -2 -1 -2 -2 0 1 -1 -5 -0 3 6 6
1 2 -1 5 -3 -2 0 -3 -1 1 -3 3 6 1 -5 -3 -1 -1 -2 -1 -3 -1 1 2 -0 -0 0 -0 -5 -3 -0 -0 1 -1 -1 -2 1 -0 2 1 3 0 4 -3 2 7 2
-2 2 -2 1 -1 -3 -0 2 -0 -3 3 0 -0 -2 -3 -8 -2 -2 -5 -6 -4 15 2 0 -2 5 -2 -4 -3 -1 1 -1 -0 -4 -2 1 -4 -1 -1 -1 -0 -2 -0 2 1 2 3
-0 1 -0 -0 3 -3 -1 3 -0 -1 -2 -3 -9 0 2 -3 -0 -5 1 -7 7 1 1 2 3 -2 1 3 1 -0 0 1 1 1 -0 1 -1 -2 -2 -2 -2 2 6 7 2 -0 1
-2 -3 -1 -3 1 -4 -2 -2 -2 -2 -4 -4 -4 -5 -4 -6 -3 0 -2 -2 3 -1 0 0 3 2 -0 3 2 1 2 2 5 2 3 2 -2 -1 1 -2 1 -0 3 -1 -0 -2 -0
-0 1 0 -1 1 -5 -3 -2 -2 -1 -3 -5 -2 -3 -4 -5 -5 -0 -15 0 -1 3 -2 -3 5 -1 1 -5 -7 -2 -1 1 2 -3 -3 -2 2 1 -2 -1 3 2 5 5 4 1 -2
-0 -1 0 -0 0 -2 -5 -1 1 -2 -0 -2 1 -4 -1 -4 -8 -5 -4 -2 2 -0 1 -2 0 2 -1 -3 4 5 6 -1 -3 -1 5 1 0 -1 3 3 2 5 1 7 0 3 -5
-2 -5 -4 -2 -1 -2 -1 -8 -4 0 -4 1 0 -8 -4 -1 -8 -3 -1 -3 -6 -6 -5 -0 -0 -2 4 3 -3 -2 -5 -0 -2 -4 -5 1 -2 -2 -6 1 3 -3 4 -0 1 4 4
-4 -12 -10 -0 -1 3 -2 -2 -3 -2 -3 3 -0 -4 -3 -2 -3 -2 -2 -2 -3 1 -0 -2 1 -1 2 -1 -0 -0 1 3 4 -1 1 -2 1 0 -2 1 3 0 -1 -5 -1 -8 8
-6 -1 -4 0 5 0 3 3 -5 2 2 2 -2 -0 -3 -4 -3 -2 -5 -1 1 0 1 -2 1 0 -5 -2 -0 -2 -1 -0 3 3 1 -1 -1 1 -1 -1 -0 8 5 1 -8 -4 -11
-2 -0 -0 -11 -17 -2 2 1 2 -4 4 2 1 -5 -0 -4 -3 -2 -1 -2 -2 -3 -1 -0 -4 2 1 -6 -5 2 -4 -1 2 3 -0 -0 -1 -2 -2 -1 -0 -5 3 3 2 1 -4
-2 -3 1 -9 -6 0 -1 -2 -0 -2 -2 -4 2 -1 1 2 1 -4 -4 -1 -2 -4 -4 -3 -3 -1 1 -1 0 -2 5 1 -1 -3 -3 -2 -1 -1 -1 -0 0 -1 0 2 1 -1 -2
1 0 -1 -4 -4 -0 -5 -0 -2 0 1 1 -4 5 -2 2 1 -1 -0 -1 -3 -2 -5 -5 -3 -2 -2 -2 -2 -3 -2 -5 -0 3 0 0 -1 -1 -1 1 -5 -1 -3 0 3 1 -1
0 1 -0 -11 2 -2 -8 -4 -6 -4 -3 -0 2 -4 0 3 4 2 -0 1 1 1 -1 -3 -3 -2 -4 -2 -2 -2 -1 -0 2 -4 -2 -3 -4 -3 -1 0 1 -1 -2 -2 -1 -0 -0
1 0 -3 7 2 -5 -6 -6 -2 1 -4 -2 0 1 -2 -1 2 1 2 4 -0 -2 -1 -1 -2 -2 -1 -2 -2 -1 -2 -0 -1 -0 -1 0 -1 -0 -0 -2 -2 -3 -1 1 0 -3 -3
2 -1 1 -1 2 -6 -6 2 3 -1 2 -1 -2 -1 3 2 -1 -0 1 -2 4 3 -1 -2 -2 -1 -1 -1 -3 -3 -3 -4 -3 -2 -2 -1 -0 -1 -2 -1 -0 -3 -1 -2 1 -2 -3
-1 0 -0 9 -1 1 -1 -5 -2 -1 -2 2 -3 -3 -3 1 7 3 -2 4 4 -0 2 4 1 -1 -2 -1 0 -0 -0 1 -1 -2 -3 -2 -1 -2 1 -1 -9 0 2 -4 -0 -1 -2
-9 -1 4 1 6 -7 9 3 -8 -9 -1 6 2 -3 -9 -2 -1 2 5 -0 -2 3 3 -0 2 3 1 -0 -1 -1 -1 -2 1 -4 -2 -4 -7 -4 -4 -3 -4 -4 -2 1 -0 -2 -2
Height
3088 3082 3075 3068 3061 3055 3050 3045 3042 3039 3037 3035 3032 3029 3026 3024 3023 3024 3025 3026 3028 3031 3037 3041 3043 3044 3047 3051 3053 3055 3054 3054 3055 3055 3056 3056 3057 3056 3055 3058 3058 3055 3056 3055 3055 3055 3055
3082 3074 3068 3062 3057 3051 3046 3041 3038 3034 3031 3028 3025 3023 3020 3018 3016 3017 3018 3019 3021 3025 3030 3033 3032 3038 3042 3046 3047 3051 3051 3051 3052 3052 3052 3053 3054 3052 3051 3052 3052 3051 3050 3049 3049 3048 3048
3077 3071 3065 3058 3052 3044 3039 3035 3030 3027 3023 3020 3017 3014 3012 3011 3010 3010 3011 3013 3015 3018 3023 3028 3028 3032 3037 3041 3040 3045 3047 3047 3048 3049 3050 3050 3051 3050 3049 3048 3047 3047 3045 3045 3046 3046 3044
3074 3066 3058 3051 3044 3036 3031 3025 3018 3013 3010 3006 3004 3003 3003 3003 3004 3004 3007 3007 3010 3013 3018 3022 3020 3027 3031 3033 3037 3042 3042 3044 3046 3047 3048 3047 3048 3047 3046 3046 3046 3044 3044 3041 3043 3044 3043
3068 3060 3051 3042 3036 3028 3022 3016 3010 3003 2998 2995 2993 2992 2992 2995 2997 2999 3002 3002 3005 3009 3014 3016 3019 3022 3029 3031 3034 3037 3039 3042 3043 3045 3046 3046 3046 3045 3045 3044 3044 3043 3040 3039 3038 3041 3038
3063 3054 3046 3037 3029 3021 3015 3008 3000 2995 2990 2986 2983 2980 2983 2987 2990 2995 2998 2999 3000 3006 3008 3014 3016 3024 3026 3028 3031 3034 3037 3038 3040 3042 3045 3044 3043 3043 3044 3044 3044 3042 3040 3038 3038 3037 3037
3058 3049 3040 3030 3022 3014 3007 3001 2993 2988 2984 2980 2978 2979 2981 2984 2988 2991 2994 2994 2999 3003 3007 3012 3015 3018 3023 3026 3030 3033 3035 3037 3039 3042 3042 3042 3042 3041 3042 3043 3042 3040 3038 3035 3034 3035 3031
3054 3045 3034 3025 3018 3010 3002 2996 2989 2984 2980 2979 2979 2980 2982 2983 2986 2989 2992 2995 2999 3001 3005 3010 3013 3017 3022 3024 3027 3030 3034 3037 3038 3039 3041 3042 3039 3041 3041 3040 3039 3038 3036 3033 3029 3030 3027
3051 3041 3029 3021 3013 3006 2999 2991 2986 2980 2978 2976 2976 2979 2980 2982 2985 2988 2990 2994 2996 3002 3007 3010 3014 3017 3020 3025 3027 3030 3033 3035 3037 3038 3039 3038 3038 3038 3038 3038 3036 3035 3034 3031 3029 3025 3022
3048 3036 3027 3020 3012 3005 2997 2990 2984 2979 2976 2975 2975 2976 2978 2983 2988 2989 2992 2994 2997 3002 3008 3014 3015 3018 3021 3023 3027 3030 3033 3036 3036 3037 3037 3036 3036 3035 3035 3034 3034 3030 3031 3029 3027 3024 3021
3044 3034 3026 3019 3012 3005 2999 2994 2988 2981 2978 2976 2977 2979 2982 2987 2988 2991 2993 2993 2999 3003 3009 3016 3015 3017 3021 3026 3028 3030 3032 3034 3035 3035 3037 3036 3034 3033 3032 3032 3031 3029 3028 3026 3024 3021 3018
3043 3034 3026 3019 3013 3006 3002 2997 2992 2989 2984 2982 2984 2985 2986 2989 2990 2993 2995 2997 3002 3007 3011 3015 3016 3019 3023 3026 3028 3030 3033 3034 3034 3034 3034 3033 3032 3031 3030 3029 3029 3027 3024 3021 3019 3018 3014
3043 3035 3028 3021 3016 3009 3006 3002 2998 2995 2992 2989 2989 2989 2991 2992 2995 2996 2998 3002 3005 3005 3014 3018 3019 3022 3025 3028 3030 3031 3032 3033 3034 3034 3032 3031 3029 3029 3028 3027 3026 3023 3023 3021 3015 3011 3010
3045 3037 3030 3023 3018 3012 3009 3007 3003 3000 2998 2996 2995 2995 2997 2998 2999 3001 3004 3006 3006 3012 3013 3018 3022 3025 3028 3030 3031 3031 3031 3032 3034 3034 3032 3029 3028 3028 3026 3026 3025 3024 3024 3022 3016 3010 3008
3047 3039 3033 3027 3020 3015 3011 3010 3008 3005 3005 3005 3003 3002 3002 3003 3005 3008 3009 3008 3013 3017 3020 3023 3026 3028 3030 3031 3032 3032 3033 3033 3033 3034 3034 3030 3028 3026 3025 3024 3025 3023 3021 3018 3015 3012 3012
3050 3043 3035 3031 3025 3019 3014 3013 3011 3010 3010 3009 3010 3009 3009 3008 3011 3012 3012 3012 3017 3020 3023 3025 3027 3029 3030 3033 3033 3033 3033 3034 3033 3033 3031 3030 3029 3026 3025 3025 3025 3023 3022 3019 3016 3015 3013
3054 3047 3040 3033 3030 3024 3019 3016 3015 3014 3014 3014 3015 3015 3015 3015 3016 3017 3015 3019 3022 3025 3026 3028 3029 3031 3033 3034 3034 3034 3035 3035 3033 3032 3030 3029 3029 3030 3027 3027 3025 3024 3021 3019 3017 3018 3017
3058 3050 3044 3038 3032 3029 3024 3020 3019 3018 3017 3018 3019 3019 3020 3021 3021 3019 3022 3023 3026 3027 3029 3031 3033 3034 3037 3036 3036 3035 3035 3035 3033 3031 3031 3030 3030 3029 3029 3028 3027 3024 3020 3018 3018 3022 3021
3062 3055 3048 3041 3036 3032 3030 3027 3022 3022 3022 3023 3024 3023 3024 3024 3024 3025 3027 3028 3030 3032 3032 3034 3036 3038 3038 3038 3038 3038 3037 3037 3035 3034 3034 3034 3033 3030 3029 3031 3030 3025 3024 3021 3020 3021 3024
3067 3060 3052 3045 3041 3037 3034 3033 3030 3028 3027 3028 3027 3027 3028 3028 3028 3030 3031 3033 3033 3034 3036 3038 3039 3039 3039 3039 3039 3041 3040 3041 3040 3038 3037 3036 3035 3034 3036 3036 3034 3031 3027 3024 3022 3024 3031
3069 3063 3058 3051 3045 3041 3039 3036 3035 3033 3032 3032 3031 3030 3029 3031 3032 3032 3033 3035 3037 3037 3038 3040 3041 3041 3041 3042 3043 3043 3042 3042 3042 3041 3040 3040 3039 3038 3037 3037 3036 3035 3032 3029 3025 3029 3029
3070 3066 3061 3056 3051 3045 3043 3041 3039 3037 3035 3034 3034 3033 3032 3030 3032 3035 3037 3037 3040 3040 3041 3042 3042 3042 3043 3042 3044 3045 3045 3044 3044 3044 3042 3042 3042 3042 3041 3040 3040 3039 3037 3036 3036 3037 3038
3069 3067 3064 3060 3056 3051 3046 3045 3043 3040 3038 3036 3035 3035 3035 3033 3034 3036 3037 3039 3041 3042 3043 3043 3044 3044 3045 3045 3045 3045 3046 3046 3045 3045 3044 3043 3043 3043 3043 3042 3042 3044 3043 3042 3042 3042 3043
3068 3066 3064 3062 3060 3055 3052 3049 3047 3044 3040 3040 3037 3036 3036 3037 3034 3034 3037 3040 3042 3043 3044 3045 3046 3046 3047 3047 3048 3047 3047 3047 3046 3046 3045 3044 3044 3044 3044 3044 3047 3045 3045 3045 3045 3046 3047
3068 3064 3062 3063 3061 3058 3055 3053 3051 3047 3043 3040 3040 3039 3037 3037 3037 3035 3036 3039 3042 3044 3045 3046 3047 3047 3048 3048 3049 3048 3047 3047 3046 3045 3045 3044 3044 3044 3044 3043 3045 3043 3044 3045 3046 3047 3047
3067 3063 3062 3062 3060 3059 3058 3056 3054 3052 3049 3045 3042 3040 3038 3038 3039 3037 3038 3039 3041 3043 3045 3046 3047 3048 3048 3048 3048 3048 3047 3046 3045 3045 3044 3044 3043 3044 3043 3044 3044 3043 3043 3043 3045 3045 3045
3065 3062 3062 3061 3059 3058 3060 3059 3055 3054 3052 3051 3048 3043 3041 3038 3039 3039 3039 3041 3042 3043 3045 3046 3047 3047 3048 3047 3047 3048 3047 3046 3044 3042 3042 3042 3042 3042 3042 3042 3040 3040 3040 3042 3044 3046 3042
3062 3060 3060 3058 3057 3057 3058 3057 3058 3057 3055 3055 3053 3050 3044 3040 3039 3040 3041 3042 3042 3044 3046 3046 3048 3046 3047 3047 3047 3046 3045 3044 3042 3040 3039 3040 3039 3038 3040 3040 3037 3034 3036 3039 3038 3038 3039
3060 3058 3055 3055 3053 3055 3055 3053 3054 3056 3056 3054 3052 3051 3049 3045 3041 3040 3041 3042 3042 3043 3045 3045 3046 3045 3045 3046 3046 3045 3043 3042 3040 3038 3036 3035 3034 3034 3034 3032 3031 3031 3032 3033 3035 3036 3037